This demonstration page uses our WeatherBlox Daily Observations layout. Learn more.

Left ArrowRight Arrow

39.92423, -83.80882

Hourly Observations for January 21, 2021

Temp ( °F °C ) Dew Point ( °F °C ) Humidity (%) Winds ( mph kmh ) Pressure ( in mb ) Visibility ( mi km ) Precip ( " mm )
12:56 am 00:56 Cloudy 32 0 20 -6.7 61 61 SW 16 26 29.92 1013 10 16.0934 0 0
1:56 am 01:56 Clear 31 -0.6 20 -6.7 64 64 SW 13 20 29.88 1012 10 16.0934 0 0
2:56 am 02:56 Clear 32 0 21 -6.1 64 64 SW 13 20 29.87 1011 10 16.0934 0 0
3:56 am 03:56 Clear 32 0 22 -5.6 66 66 SW 14 22 29.85 1011 10 16.0934 0 0
4:56 am 04:56 Clear 33 0.6 23 -5 66 66 SW 16 26 29.84 1010 10 16.0934 0 0
5:56 am 05:56 Clear 34 1.1 24 -4.4 67 67 WSW 17 28 29.83 1010 10 16.0934 0 0
6:56 am 06:56 Clear 33 0.6 26 -3.3 75 75 WSW 15 24 29.85 1011 10 16.0934 0 0
7:56 am 07:56 Sunny 32 0 28 -2.2 85 85 WSW 16 26 29.85 1011 10 16.0934 0 0
8:56 am 08:56 Sunny 33 0.6 29 -1.7 85 85 WSW 13 20 29.85 1011 10 16.0934 0 0
9:56 am 09:56 Sunny 37 2.8 31 -0.6 79 79 WSW 15 24 29.85 1011 10 16.0934 0 0
10:56 am 10:56 Sunny 39 3.9 31 -0.6 73 73 WSW 18 30 29.84 1011 10 16.0934 0 0
11:56 am 11:56 Sunny 42 5.6 31 -0.6 65 65 WSW 20 31 29.81 1010 10 16.0934 0 0
12:56 pm 12:56 Sunny 45 7.2 29 -1.7 54 54 WSW 20 31 29.78 1009 10 16.0934 0 0
1:56 pm 13:56 Sunny 46 7.8 26 -3.3 46 46 W 25 41 29.76 1008 10 16.0934 0 0
2:56 pm 14:56 Sunny 46 7.8 25 -3.9 44 44 W 25 41 29.77 1008 10 16.0934 0 0
3:56 pm 15:56 Sunny 45 7.2 25 -3.9 46 46 W 21 33 29.77 1008 10 16.0934 0 0
4:56 pm 16:56 Sunny 44 6.7 24 -4.4 45 45 W 17 28 29.77 1008 10 16.0934 0 0
5:56 pm 17:56 Clear 41 5 23 -5 49 49 WSW 17 28 29.78 1008 10 16.0934 0 0
6:56 pm 18:56 Clear 40 4.4 22 -5.6 49 49 WSW 14 22 29.79 1009 10 16.0934 0 0
7:56 pm 19:56 Clear 40 4.4 23 -5 51 51 WSW 20 31 29.8 1009 10 16.0934 0 0
8:56 pm 20:56 Clear 40 4.4 22 -5.6 49 49 WSW 18 30 29.8 1009 10 16.0934 0 0
9:56 pm 21:56 Clear 39 3.9 22 -5.6 50 50 WSW 18 30 29.8 1009 10 16.0934 0 0
10:56 pm 22:56 Clear 38 3.3 23 -5 55 55 W 15 24 29.8 1009 10 16.0934 0 0
11:56 pm 23:56 Clear 36 2.2 23 -5 59 59 W 12 19 29.82 1010 10 16.0934 0 0

Powered by AerisWeather